Regional Weather Roundup
Issued by NWS

Home | Current Version | Previous Version | Graphics & Text | Print | Product List | Glossary On
Versions: 1 2 3 4 5 6 7 8 9 10 11 12 13 14 15 16 17 18 19 20 21 22 23 24 25 26 27 28 29 30 31 32 33 34 35 36 37 38 39 40 41 42 43 44 45 46 47 48 49
000
ASUS43 KDMX 180207
RWRIA

WEATHER ROUNDUP FOR IOWA
NATIONAL WEATHER SERVICE DES MOINES IA
900 PM CDT WED SEP 17 2014

NOTE: "FAIR" INDICATES FEW OR NO CLOUDS BELOW 12,000 FEET WITH NO
SIGNIFICANT WEATHER AND/OR OBSTRUCTIONS TO VISIBILITY.

* - THESE STATIONS ARE NOT NWS STATIONS...THUS NOT UNDER NWS
QUALITY CONTROL.  THEY ALSO DO NOT REPORT WEATHER SUCH
AS PRECIPITATION OR FOG.

IAZ001>003-012>014-020>022-031>034-043>046-180300-
   NORTHWEST IOWA

CITY           SKY/WX    TMP DP  RH WIND       PRES   REMARKS
CARROLL *      PTCLDY    57  55  94 CALM      29.97R
CHEROKEE *     CLEAR     62  57  83 CALM      29.96R
DENISON *      PTCLDY    61  59  94 E6        29.94R
LE MARS *      CLEAR     68  59  73 SE6       29.95R
ORANGE CITY *  CLEAR     64  55  72 CALM      29.96R
SHELDON *      MOCLDY    61  57  88 E6        29.96R
SIOUX CITY     CLEAR     68  59  73 E6        29.94R
SPENCER        PTCLDY    60  56  86 E5        29.97R
STORM LAKE *   CLEAR     59  55  88 SE6       29.97R
$$

IAZ055>058-069>071-079>083-090>094-180300-
   SOUTHWEST IOWA

CITY           SKY/WX    TMP DP  RH WIND       PRES   REMARKS
ATLANTIC *     PTCLDY    61  59  94 NE5       29.95R
AUDUBON *      CLEAR     59  52  77 CALM      29.97R
CLARINDA *     CLEAR     61  59  94 CALM      29.95R
COUNCIL BLFS * CLEAR     68  63  83 E7        29.93R
CRESTON *      CLEAR     61  59  94 E7        29.97R
HARLAN  *      CLEAR     63  59  88 CALM      29.99R
LAMONI         CLEAR     64  59  83 E5        29.96R
SHENANDOAH *   CLEAR     63  61  94 CALM      29.94R
$$

IAZ047>049-059>061-072>074-084-180300-
   CENTRAL IOWA

CITY           SKY/WX    TMP DP  RH WIND       PRES   REMARKS
AMES           CLEAR     56  55  97 CALM      29.97R
ANKENY *       CLEAR     63  57  82 CALM      29.97R
CHARITON *     PTCLDY    63  59  88 SE6       29.98R
DES MOINES     CLEAR     67  57  70 E5        29.97R
GRINNELL*      CLEAR     58  55  88 E3        29.99R
KNOXVILLE *    CLEAR     64  57  77 SE6       29.97R
MARSHALLTOWN   CLEAR     57  52  83 E5        29.98R
PELLA *        CLEAR     62  56  80 SE3       29.99R
PERRY *          N/A     59  55  88 E3        29.97R
$$

IAZ004>006-015-016-023>025-035-036-180300-
   NORTH CENTRAL IOWA

CITY           SKY/WX    TMP DP  RH WIND       PRES   REMARKS
ALGONA *       CLEAR     63  57  82 SE6       29.98R
CLARION *        N/A     59  54  82 SE6       29.98R
ESTHERVILLE    PTCLDY    60  55  83 NE7       29.97
FORT DODGE *   CLEAR     57  52  82 E5        29.98R
MASON CITY     CLEAR     54  52  93 SE5       30.00R
FOREST CITY *  MOCLDY    59  54  82 CALM      29.99R
IOWA FALLS *     N/A     58  52  80 CALM      29.99S
$$

IAZ007>011-017>019-026>030-037>042-050>054-066-180300-
   NORTHEAST IOWA

CITY           SKY/WX    TMP DP  RH WIND       PRES   REMARKS
CEDAR RAPIDS   CLEAR     58  54  86 CALM      29.99R
CHARLES CITY * CLEAR     59  52  77 E5        30.00R
CLINTON *      CLEAR     54  48  82 E6        30.03R
DECORAH *      PTCLDY    57  52  82 CALM      30.00R
DUBUQUE        CLEAR     55  50  83 CALM      30.01R
MONTICELLO *   CLEAR     52  52 100 CALM      30.00R
OELWEIN *      CLEAR     59  52  77 SE5       30.01R
WATERLOO       CLEAR     53  50  89 E3        29.98R
$$

IAZ064-065-067-068-078-180300-
   EAST CENTRAL IOWA

CITY           SKY/WX    TMP DP  RH WIND       PRES   REMARKS
DAVENPORT      CLEAR     55  48  77 SE3       30.00R
IOWA CITY      CLEAR     57  55  93 CALM      30.01R
MT. PLEASANT * CLEAR     57  53  85 E5        29.99R
MUSCATINE *    CLEAR     57  54  88 CALM      30.00R
QUAD CITIES    CLEAR     55  51  86 CALM      30.00R
$$

IAZ062-063-075>077-085>089-095>099-180300-
   SOUTHEAST IOWA

CITY           SKY/WX    TMP DP  RH WIND       PRES   REMARKS
BURLINGTON     CLEAR     60  53  77 SE5       29.99R
FAIRFIELD *    CLEAR     55  54  94 CALM      29.99R
FORT MADISON * CLEAR     59  54  82 SE5       30.00R
KEOKUK *       CLEAR     57  55  94 E7        29.98R
OSKALOOSA *      N/A     59  56  87 SE6       29.99R
CENTERVILLE *  CLEAR     59  59 100 E5        30.00R
OTTUMWA        CLEAR     57  53  86 SE6       29.98R
WASHINGTON *   CLEAR     57  55  94 SE3       30.00R
$$

ABBREVIATIONS USED IN REMARKS
   TC - TEMPERATURES IN CELSIUS
  WCI - WIND CHILL INDEX
   HX - HEAT INDEX
  VSB - VISIBILITY
$$



USA.gov is the U.S. government's official web portal to all federal, state and local government web resources and services.